LEMUR-2-ANUBHAVTHAKUR (41873 NORAD) Tracking and Keplerian Element Data

This shows tracking and keplerian element data for the satellite.

Feedback or suggestion? Click here.




ElementValue
Catalog41873
NameLEMUR-2-ANUBHAVTHAKUR
Epoch Orbit42069
Epoch Day160.1276256
Epoch Year2024
RAAN110.5213
Inclination51.6607
Eccentricity0.0005955
Argument of Perigee60.4913
Mean Anonmoly299.6683
Mean Motion15.82349366
Decay Rate0.00232095
L11 41873U 16062E 24160.12762560 .00232095 00000+0 10694-2 0 9992
L22 41873 51.6607 110.5213 0005955 60.4913 299.6683 15.82349366420691



Live tracking and technical data element details for LEMUR-2-ANUBHAVTHAKUR (NORAD 41873). LEMUR-2-ANUBHAVTHAKUR can be tracked NOW for your location showing map with azimuth and elevation plus other details from your city location.







IsCatalogInMostPopularTable: catalog: 41873, numindb: 304
Update: records affected: 1



GetName: 41873 LEMUR-2-ANUBHAVTHAKUR

Hit Count: updated at: Thu, 22 May 2025 04:10:01 GMT